Weather reports worldwide

Advertisment
Burgas, Bulgaria (15655): temperature & dewpoint: 29.05.2020 21:00:00 - 04.06.2020 21:00:00 (EEST)Burgas, Bulgaria (15655): water temperature: 29.05.2020 21:00:00 - 04.06.2020 21:00:00 (EEST)Burgas, Bulgaria (15655): wind speed: 29.05.2020 21:00:00 - 04.06.2020 21:00:00 (EEST)Burgas, Bulgaria (15655): wind direction: 29.05.2020 21:00:00 - 04.06.2020 21:00:00 (EEST)Burgas, Bulgaria (15655): reduced air pressure: 29.05.2020 21:00:00 - 04.06.2020 21:00:00 (EEST)Burgas, Bulgaria (15655): visibility: 29.05.2020 21:00:00 - 04.06.2020 21:00:00 (EEST)
Date & Time tt [°C] td [°C] tw [°C] ff [km/h] ff [kn] dd ppp [hPa] vv [km]
04.06.2020 21:00:00 23,4 13,5 18,3 7 4 SW 1008,4 20
04.06.2020 20:00:00 - - - - - - - -
04.06.2020 19:00:00 - - - - - - - -
04.06.2020 18:00:00 26,0 10,7 - 14 8 S 1008,6 25
04.06.2020 17:00:00 - - - - - - - -
04.06.2020 16:00:00 - - - - - - - -
04.06.2020 15:00:00 25,8 10,9 18,4 11 6 SW 1009,1 20
04.06.2020 14:00:00 - - - - - - - -
04.06.2020 13:00:00 - - - - - - - -
04.06.2020 12:00:00 22,3 10,9 - 11 6 SW 1009,5 20
04.06.2020 11:00:00 - - - - - - - -
04.06.2020 10:00:00 - - - - - - - -
04.06.2020 09:00:00 16,2 11,8 17,9 7 4 SSW 1009,4 20
04.06.2020 08:00:00 - - - - - - - -
04.06.2020 07:00:00 - - - - - - - -
04.06.2020 06:00:00 12,8 10,9 - 0 0 N 1008,8 18
04.06.2020 05:00:00 - - - - - - - -
04.06.2020 04:00:00 - - - - - - - -
04.06.2020 03:00:00 14,2 12,0 - 7 4 SSW 1009,0 18
04.06.2020 02:00:00 - - - - - - - -
04.06.2020 01:00:00 - - - - - - - -
04.06.2020 00:00:00 16,4 11,6 - 14 8 SSE 1009,1 18
03.06.2020 23:00:00 - - - - - - - -
03.06.2020 22:00:00 - - - - - - - -
03.06.2020 21:00:00 17,6 13,0 18,9 22 12 E 1008,2 18
03.06.2020 20:00:00 - - - - - - - -
03.06.2020 19:00:00 - - - - - - - -
03.06.2020 18:00:00 19,0 11,8 - 43 23 E 1007,9 20
03.06.2020 17:00:00 - - - - - - - -
03.06.2020 16:00:00 - - - - - - - -
03.06.2020 15:00:00 20,1 10,8 18,8 18 10 E 1008,2 20
03.06.2020 14:00:00 - - - - - - - -
03.06.2020 13:00:00 - - - - - - - -
03.06.2020 12:00:00 18,4 9,5 - 7 4 SW 1008,8 20
03.06.2020 11:00:00 - - - - - - - -
03.06.2020 10:00:00 - - - - - - - -
03.06.2020 09:00:00 13,1 8,9 17,7 0 0 N 1008,8 20
03.06.2020 08:00:00 - - - - - - - -
03.06.2020 07:00:00 - - - - - - - -
03.06.2020 06:00:00 11,4 9,4 - 0 0 N 1008,4 18
03.06.2020 05:00:00 - - - - - - - -
03.06.2020 04:00:00 - - - - - - - -
03.06.2020 03:00:00 12,7 10,0 - 11 6 WNW 1008,2 18
03.06.2020 02:00:00 - - - - - - - -
03.06.2020 01:00:00 - - - - - - - -
03.06.2020 00:00:00 12,8 11,5 - 7 4 WNW 1008,6 18
02.06.2020 23:00:00 - - - - - - - -
02.06.2020 22:00:00 - - - - - - - -
02.06.2020 21:00:00 14,6 12,8 17,2 0 0 N 1008,3 18
02.06.2020 20:00:00 - - - - - - - -
02.06.2020 19:00:00 - - - - - - - -
02.06.2020 18:00:00 15,6 14,7 - 22 12 ENE 1008,1 18
02.06.2020 17:00:00 - - - - - - - -
02.06.2020 16:00:00 - - - - - - - -
02.06.2020 15:00:00 17,8 13,6 17,6 29 16 NE 1008,2 20
02.06.2020 14:00:00 - - - - - - - -
02.06.2020 13:00:00 - - - - - - - -
02.06.2020 12:00:00 18,8 11,1 - 22 12 E 1008,7 18
02.06.2020 11:00:00 - - - - - - - -
02.06.2020 10:00:00 - - - - - - - -
02.06.2020 09:00:00 16,6 11,0 16,9 0 0 N 1008,9 18
02.06.2020 08:00:00 - - - - - - - -
02.06.2020 07:00:00 - - - - - - - -
02.06.2020 06:00:00 13,0 9,5 - 7 4 W 1008,9 18
02.06.2020 05:00:00 - - - - - - - -
02.06.2020 04:00:00 - - - - - - - -
02.06.2020 03:00:00 13,8 8,6 - 7 4 W 1009,3 18
02.06.2020 02:00:00 - - - - - - - -
02.06.2020 01:00:00 - - - - - - - -
02.06.2020 00:00:00 16,4 12,4 - 0 0 N 1008,9 18
01.06.2020 23:00:00 - - - - - - - -
01.06.2020 22:00:00 - - - - - - - -
01.06.2020 21:00:00 18,0 9,7 17,7 0 0 N 1009,5 20
01.06.2020 20:00:00 - - - - - - - -
01.06.2020 19:00:00 - - - - - - - -
01.06.2020 18:00:00 20,6 11,4 - 7 4 SSE 1009,4 20
01.06.2020 17:00:00 - - - - - - - -
01.06.2020 16:00:00 - - - - - - - -
01.06.2020 15:00:00 17,3 10,6 17,5 14 8 SSW 1010,7 20
01.06.2020 14:00:00 - - - - - - - -
01.06.2020 13:00:00 - - - - - - - -
01.06.2020 12:00:00 18,1 7,9 - 0 0 N 1011,7 20
01.06.2020 11:00:00 - - - - - - - -
01.06.2020 10:00:00 - - - - - - - -
01.06.2020 09:00:00 16,2 11,4 17,5 0 0 N 1011,2 20
01.06.2020 08:00:00 - - - - - - - -
01.06.2020 07:00:00 - - - - - - - -
01.06.2020 06:00:00 15,4 13,1 - 7 4 WSW 1010,6 18
01.06.2020 05:00:00 - - - - - - - -
01.06.2020 04:00:00 - - - - - - - -
01.06.2020 03:00:00 15,8 14,4 - 4 2 SW 1011,2 18
01.06.2020 02:00:00 - - - - - - - -
01.06.2020 01:00:00 - - - - - - - -
01.06.2020 00:00:00 16,6 12,0 - 7 4 SW 1011,4 18
31.05.2020 23:00:00 - - - - - - - -
31.05.2020 22:00:00 - - - - - - - -
31.05.2020 21:00:00 18,1 12,9 18,6 7 4 NNW 1011,4 18
31.05.2020 20:00:00 - - - - - - - -
31.05.2020 19:00:00 - - - - - - - -
31.05.2020 18:00:00 19,4 13,1 - 11 6 S 1011,6 18
31.05.2020 17:00:00 - - - - - - - -
31.05.2020 16:00:00 - - - - - - - -
31.05.2020 15:00:00 18,4 15,0 18,2 29 16 E 1011,0 20
31.05.2020 14:00:00 - - - - - - - -
31.05.2020 13:00:00 - - - - - - - -
31.05.2020 12:00:00 21,6 12,8 - 7 4 SSW 1012,7 20
31.05.2020 11:00:00 - - - - - - - -
31.05.2020 10:00:00 - - - - - - - -
31.05.2020 09:00:00 15,2 11,5 17,4 0 0 N 1013,6 20
31.05.2020 08:00:00 - - - - - - - -
31.05.2020 07:00:00 - - - - - - - -
31.05.2020 06:00:00 12,8 11,3 - 7 4 SW 1013,2 18
31.05.2020 05:00:00 - - - - - - - -
31.05.2020 04:00:00 - - - - - - - -
31.05.2020 03:00:00 13,4 12,5 - 0 0 N 1013,7 18
31.05.2020 02:00:00 - - - - - - - -
31.05.2020 01:00:00 - - - - - - - -
31.05.2020 00:00:00 15,0 13,8 - 0 0 N 1013,7 18
30.05.2020 23:00:00 - - - - - - - -
30.05.2020 22:00:00 - - - - - - - -
30.05.2020 21:00:00 17,4 12,7 17,7 14 8 N 1013,2 18
30.05.2020 20:00:00 - - - - - - - -
30.05.2020 19:00:00 - - - - - - - -
30.05.2020 18:00:00 19,6 13,3 - 22 12 NE 1012,4 20
30.05.2020 17:00:00 - - - - - - - -
30.05.2020 16:00:00 - - - - - - - -
30.05.2020 15:00:00 22,4 10,4 17,3 14 8 SSW 1012,8 20
30.05.2020 14:00:00 - - - - - - - -
30.05.2020 13:00:00 - - - - - - - -
30.05.2020 12:00:00 19,8 10,8 - 7 4 SSE 1013,6 20
30.05.2020 11:00:00 - - - - - - - -
30.05.2020 10:00:00 - - - - - - - -
30.05.2020 09:00:00 14,0 10,6 17,6 7 4 SW 1013,9 18
30.05.2020 08:00:00 - - - - - - - -
30.05.2020 07:00:00 - - - - - - - -
30.05.2020 06:00:00 12,2 10,7 - 7 4 W 1013,7 18
30.05.2020 05:00:00 - - - - - - - -
30.05.2020 04:00:00 - - - - - - - -
30.05.2020 03:00:00 13,8 9,9 - 7 4 WSW 1014,0 18
30.05.2020 02:00:00 - - - - - - - -
30.05.2020 01:00:00 - - - - - - - -
30.05.2020 00:00:00 14,6 10,8 - 7 4 WSW 1014,2 18
29.05.2020 23:00:00 - - - - - - - -
29.05.2020 22:00:00 - - - - - - - -
29.05.2020 21:00:00 16,6 11,4 17,8 7 4 SW 1014,5 20

tt = temperature
td = dewpoint
tw = water temperature
ff = wind speed
dd = wind direction
ppp = reduced air pressure
vv = visibility

Next stations